Starlink 33733

operational
NORAD ID: 63435 Int'l Des: 2025-069 Owner: SPXS Country: US Constellation: starlink
LEOCIRCULAR

关于 Starlink 33733

正在加载描述...

实时位置

正在加载3D地球...

即将过境

高度历史

Altitude vs Time

uPlot chart will show altitude changes over time

两行轨道根数

1 63435U 25069C 26036.43498550 .00044008 00000-0 14876-2 0 9992
2 63435 53.1597 292.4948 0001263 95.6732 264.4413 15.30235896 48463
Epoch: Feb 5, 2026 • Age: 10 hours

当前状态

高度 480.4 km
速度 7.63 km/s
星下点 52.02°N, 42.26°W
发射日期 Apr 4, 2025
运行时间 0.8 years
类型 internet

技术详情

分类 Payload
质量 575.00 kg
干质量 530.00 kg
总质量 575.00 kg
长度 0.30 m
直径 4.10 m
跨度 29.00 m
形状 Box + pan
制造商 SPXS
平台类型 Starlink V2MO
阶段状态 In Orbit
所有者/国家 SPXS/US

大型星座

Loading constellations...